FW2996 Weather Reports


Display with metric or nautical units.
time (UTC)temp
F
wind
direction
speed
MPH
gust
MPH
rain 1hr
in
rain 24hr
in
rain mn
in
humidity
%
barometer
mb
20260504034757 65 155 3.0 7.0 0.00 0.00 0.00 62 1059.0
20260504034255 65 150 3.0 8.0 0.00 0.00 0.00 61 1058.9
20260504033752 64 162 2.0 7.0 0.00 0.00 0.00 61 1058.9
20260504033249 64 134 4.0 4.0 0.00 0.00 0.00 63 1058.8
20260504032746 64 193 2.0 2.0 0.00 0.00 0.00 61 1058.9
20260504032243 64 195 1.0 1.0 0.00 0.00 0.00 61 1058.7
20260504031740 64 195 0.0 1.0 0.00 0.00 0.00 62 1058.8
20260504031237 64 195 1.0 1.0 0.00 0.00 0.00 61 1058.8
20260504030733 65 195 0.0 0.0 0.00 0.00 0.00 60 1058.8
20260504030230 65 195 1.0 1.0 0.00 0.00 0.00 59 1058.9
20260504025727 65 195 0.0 1.0 0.00 0.00 0.00 60 1058.8
20260504025224 65 195 1.0 1.0 0.00 0.00 0.00 59 1058.9
20260504024721 65 195 0.0 0.0 0.00 0.00 0.00 58 1058.9
20260504024217 66 195 1.0 2.0 0.00 0.00 0.00 58 1058.8
20260504023714 66 195 2.0 2.0 0.00 0.00 0.00 57 1058.9
20260504023210 66 156 1.0 1.0 0.00 0.00 0.00 57 1058.7
20260504022706 66 156 1.0 2.0 0.00 0.00 0.00 57 1058.7
20260504022203 66 151 1.0 1.0 0.00 0.00 0.00 56 1058.6
20260504021700 67 150 0.0 3.0 0.00 0.00 0.00 56 1058.7
20260504021157 67 189 1.0 1.0 0.00 0.00 0.00 56 1058.6
20260504020654 67 189 0.0 2.0 0.00 0.00 0.00 55 1058.6
20260504020149 67 197 1.0 1.0 0.00 0.00 0.00 55 1058.8
20260504015646 67 197 1.0 2.0 0.00 0.00 0.00 56 1058.6
20260504015137 68 197 1.0 2.0 0.00 0.00 0.00 53 1058.8
20260504014633 68 190 0.0 1.0 0.00 0.00 0.00 53 1058.4
20260504014130 68 190 0.0 1.0 0.00 0.00 0.00 52 1058.4
20260504013628 68 190 1.0 3.0 0.00 0.00 0.00 52 1058.4
20260504013124 69 173 1.0 2.0 0.00 0.00 0.00 51 1058.3
20260504012622 69 170 1.0 3.0 0.00 0.00 0.00 50 1058.2
20260504012120 69 148 3.0 3.0 0.00 0.00 0.00 49 1058.2
20260504011616 70 131 2.0 3.0 0.00 0.00 0.00 49 1058.2
20260504011113 70 164 2.0 4.0 0.00 0.00 0.00 48 1058.1
20260504010609 70 144 3.0 4.0 0.00 0.00 0.00 48 1058.1
20260504010105 71 159 2.0 4.0 0.00 0.00 0.00 48 1058.2
20260504005602 71 171 1.0 4.0 0.00 0.00 0.00 48 1058.2
20260504005059 71 185 2.0 3.0 0.00 0.00 0.00 46 1058.3
20260504004557 72 172 3.0 6.0 0.00 0.00 0.00 46 1058.0
20260504004054 73 191 3.0 7.0 0.00 0.00 0.00 45 1058.2
20260504003549 73 186 5.0 9.0 0.00 0.00 0.00 43 1058.0
20260504003046 73 186 2.0 7.0 0.00 0.00 0.00 45 1058.2
20260504002543 73 178 3.0 6.0 0.00 0.00 0.00 43 1058.3
20260504002041 73 138 3.0 6.0 0.00 0.00 0.00 42 1058.1
20260504001538 74 214 7.0 8.0 0.00 0.00 0.00 41 1058.2
20260504001034 74 206 4.0 7.0 0.00 0.00 0.00 40 1058.4
20260504000532 74 201 3.0 11.0 0.00 0.00 0.00 42 1058.4
20260504000029 74 194 6.0 13.0 0.00 0.00 0.00 41 1058.4
20260503235527 74 155 3.0 9.0 0.00 0.00 0.00 41 1058.7
20260503235024 74 173 2.0 8.0 0.00 0.00 0.00 41 1058.7
20260503234521 75 155 4.0 8.0 0.00 0.00 0.00 40 1058.9
20260503234020 75 126 3.0 9.0 0.00 0.00 0.00 40 1058.7
20260503233515 76 180 3.0 9.0 0.00 0.00 0.00 40 1058.9
20260503233012 76 184 3.0 9.0 0.00 0.00 0.00 40 1058.5
20260503232509 76 132 7.0 10.0 0.00 0.00 0.00 39 1058.5
20260503232006 76 208 4.0 7.0 0.00 0.00 0.00 40 1058.8
20260503231504 75 190 4.0 8.0 0.00 0.00 0.00 40 1058.8
20260503231000 75 132 8.0 11.0 0.00 0.00 0.00 40 1058.8
20260503230457 75 129 5.0 9.0 0.00 0.00 0.00 40 1058.7
20260503225954 76 137 4.0 4.0 0.00 0.00 0.00 40 1058.7
20260503225451 76 157 4.0 8.0 0.00 0.00 0.00 40 1058.8
20260503224946 76 186 6.0 9.0 0.00 0.00 0.00 39 1058.8
20260503224444 75 165 4.0 8.0 0.00 0.00 0.00 41 1058.6
20260503223942 75 140 4.0 7.0 0.00 0.00 0.00 39 1058.9
20260503223439 75 185 4.0 11.0 0.00 0.00 0.00 38 1059.0
20260503222934 76 140 6.0 10.0 0.00 0.00 0.00 38 1058.9
20260503222433 77 144 7.0 9.0 0.00 0.00 0.00 37 1059.0
20260503221931 78 189 2.0 8.0 0.00 0.00 0.00 37 1059.0
20260503221429 78 178 3.0 10.0 0.00 0.00 0.00 37 1059.2
20260503220926 78 222 1.0 6.0 0.00 0.00 0.00 38 1059.2
20260503220422 78 145 2.0 8.0 0.00 0.00 0.00 37 1059.3
20260503215919 77 217 5.0 9.0 0.00 0.00 0.00 37 1059.3
20260503215416 78 130 5.0 7.0 0.00 0.00 0.00 37 1059.3
20260503214914 77 125 2.0 9.0 0.00 0.00 0.00 39 1059.5
20260503214411 78 186 6.0 10.0 0.00 0.00 0.00 37 1059.5
20260503213909 77 173 7.0 19.0 0.00 0.00 0.00 37 1059.5
20260503213406 78 143 2.0 7.0 0.00 0.00 0.00 39 1059.4
20260503212902 78 175 7.0 10.0 0.00 0.00 0.00 36 1059.8
20260503212400 77 145 2.0 6.0 0.00 0.00 0.00 38 1059.8
20260503211857 78 176 7.0 10.0 0.00 0.00 0.00 37 1059.9
20260503211354 78 220 5.0 7.0 0.00 0.00 0.00 35 1060.0
20260503210849 77 208 2.0 10.0 0.00 0.00 0.00 37 1060.4
20260503210347 78 185 4.0 9.0 0.00 0.00 0.00 37 1060.4
20260503205842 77 158 7.0 11.0 0.00 0.00 0.00 36 1060.4
20260503205339 78 217 5.0 15.0 0.00 0.00 0.00 36 1060.6
20260503204835 78 205 9.0 15.0 0.00 0.00 0.00 37 1060.6
20260503204332 78 180 4.0 7.0 0.00 0.00 0.00 37 1060.8
20260503203829 78 221 8.0 14.0 0.00 0.00 0.00 35 1060.8
20260503203327 77 203 2.0 7.0 0.00 0.00 0.00 37 1060.8
20260503202824 77 162 2.0 6.0 0.00 0.00 0.00 39 1060.9
20260503202322 79 234 8.0 13.0 0.00 0.00 0.00 34 1061.3
20260503201820 77 210 4.0 9.0 0.00 0.00 0.00 35 1061.4
20260503201316 77 123 9.0 11.0 0.00 0.00 0.00 36 1061.4
20260503200814 78 179 8.0 13.0 0.00 0.00 0.00 35 1061.2
20260503200310 77 187 4.0 8.0 0.00 0.00 0.00 35 1061.4
20260503195807 77 202 4.0 8.0 0.00 0.00 0.00 37 1061.4
20260503195304 77 151 6.0 8.0 0.00 0.00 0.00 36 1061.6
20260503194801 78 131 4.0 8.0 0.00 0.00 0.00 34 1061.8
20260503194256 78 186 8.0 11.0 0.00 0.00 0.00 33 1061.8
20260503193752 77 207 2.0 10.0 0.00 0.00 0.00 36 1061.7
20260503193248 76 169 7.0 15.0 0.00 0.00 0.00 37 1061.7
20260503192739 77 164 8.0 16.0 0.00 0.00 0.00 34 1061.9
20260503192234 76 175 9.0 15.0 0.00 0.00 0.00 35 1061.8
20260503191732 76 176 10.0 14.0 0.00 0.00 0.00 37 1062.0
20260503191229 77 156 8.0 13.0 0.00 0.00 0.00 35 1061.8
20260503190725 76 170 5.0 15.0 0.00 0.00 0.00 33 1062.1
20260503190222 77 152 8.0 9.0 0.00 0.00 0.00 34 1062.0
20260503185720 76 191 2.0 7.0 0.00 0.00 0.00 36 1062.4
20260503185215 76 131 8.0 13.0 0.00 0.00 0.00 33 1062.5
20260503184709 77 167 3.0 7.0 0.00 0.00 0.00 36 1062.4
20260503184206 76 241 3.0 11.0 0.00 0.00 0.00 35 1062.4
20260503183703 79 132 8.0 9.0 0.00 0.00 0.00 35 1062.5
20260503183200 78 171 4.0 6.0 0.00 0.00 0.00 34 1062.6
20260503182658 76 191 4.0 9.0 0.00 0.00 0.00 35 1062.8
20260503182156 77 185 2.0 6.0 0.00 0.00 0.00 33 1062.8
20260503181652 77 209 3.0 9.0 0.00 0.00 0.00 33 1063.0
20260503181149 77 150 7.0 9.0 0.00 0.00 0.00 34 1062.8
20260503180646 76 139 6.0 10.0 0.00 0.00 0.00 37 1063.0
20260503180144 76 137 5.0 8.0 0.00 0.00 0.00 37 1063.2
20260503175641 76 182 8.0 11.0 0.00 0.00 0.00 36 1063.2
20260503175138 76 127 6.0 9.0 0.00 0.00 0.00 35 1063.6
20260503174635 76 191 6.0 13.0 0.00 0.00 0.00 34 1063.6
20260503174132 76 198 7.0 9.0 0.00 0.00 0.00 35 1063.4
20260503173627 75 225 2.0 10.0 0.00 0.00 0.00 38 1063.7
20260503173124 75 151 6.0 13.0 0.00 0.00 0.00 39 1063.7
20260503172620 76 178 9.0 11.0 0.00 0.00 0.00 38 1064.0
20260503172118 75 191 3.0 7.0 0.00 0.00 0.00 42 1063.8
20260503171614 74 132 2.0 8.0 0.00 0.00 0.00 41 1063.9
20260503171112 76 186 4.0 10.0 0.00 0.00 0.00 40 1063.9
20260503170609 75 191 2.0 9.0 0.00 0.00 0.00 44 1064.0
20260503170105 74 127 3.0 7.0 0.00 0.00 0.00 43 1064.1
20260503151000 71 212 3.0 7.0 0.00 0.00 0.00 53 1064.7
20260503150457 71 227 5.0 9.0 0.00 0.00 0.00 51 1064.8
20260503131344 63 242 2.0 3.0 0.00 0.00 0.00 67 1064.2
20260503130841 63 271 1.0 2.0 0.00 0.00 0.00 68 1064.0
20260503130339 62 267 2.0 2.0 0.00 0.00 0.00 70 1064.0
20260503110727 55 10 1.0 1.0 0.00 0.00 0.00 78 1063.5
20260503110224 55 10 1.0 1.0 0.00 0.00 0.00 78 1063.2
20260503100150 52 14 1.0 2.0 0.00 0.00 0.00 87 1062.6
20260503090109 53 15 0.0 1.0 0.00 0.00 0.00 84 1062.8
20260503081539 56 16 0.0 1.0 0.00 0.00 0.00 77 1062.6
20260503081036 55 20 1.0 2.0 0.00 0.00 0.00 77 1062.8
20260503080532 55 21 1.0 2.0 0.00 0.00 0.00 78 1062.8
20260503072506 55 25 1.0 1.0 0.00 0.00 0.00 80 1063.1
20260503072003 53 25 1.0 2.0 0.00 0.00 0.00 83 1063.1
20260503071500 53 25 1.0 2.0 0.00 0.00 0.00 86 1063.2
20260503070956 53 26 2.0 3.0 0.00 0.00 0.00 86 1063.1
20260503070453 53 28 2.0 2.0 0.00 0.00 0.00 84 1063.1
20260503054912 53 34 2.0 2.0 0.00 0.00 0.00 86 1063.4
20260503054408 53 88 0.0 2.0 0.00 0.00 0.00 86 1063.4
20260503053906 54 88 1.0 2.0 0.00 0.00 0.00 85 1063.5
20260503053404 54 89 0.0 2.0 0.00 0.00 0.00 84 1063.4
20260503052859 54 90 2.0 2.0 0.00 0.00 0.00 84 1063.6
20260503052357 55 91 1.0 2.0 0.00 0.00 0.00 84 1063.6
20260503051853 55 92 2.0 2.0 0.00 0.00 0.00 81 1063.6
20260503051349 55 93 1.0 2.0 0.00 0.00 0.00 82 1063.4
20260503050846 55 93 2.0 2.0 0.00 0.00 0.00 83 1063.5
20260503050343 55 93 2.0 2.0 0.00 0.00 0.00 82 1063.5
20260503045840 55 94 1.0 2.0 0.00 0.00 0.00 81 1063.5
20260503045338 56 94 1.0 2.0 0.00 0.00 0.00 81 1063.6
20260503044834 56 94 2.0 2.0 0.00 0.00 0.00 80 1063.4
20260503044331 55 94 1.0 2.0 0.00 0.00 0.00 82 1063.2
20260503043828 54 94 0.0 2.0 0.00 0.00 0.00 85 1063.5
20260503043325 54 94 2.0 2.0 0.00 0.00 0.00 86 1063.6
20260503042821 54 94 0.0 2.0 0.00 0.00 0.00 86 1063.5
20260503042318 55 94 1.0 1.0 0.00 0.00 0.00 85 1063.6
20260503041814 55 94 1.0 1.0 0.00 0.00 0.00 83 1063.5
20260503041312 56 94 0.0 1.0 0.00 0.00 0.00 82 1063.4
20260503040809 55 94 1.0 1.0 0.00 0.00 0.00 81 1063.2
20260503040307 56 94 1.0 1.0 0.00 0.00 0.00 82 1062.9
20260503035803 55 94 0.0 0.0 0.00 0.00 0.00 81 1063.1
20260503035301 56 94 0.0 0.0 0.00 0.00 0.00 82 1063.2